COSMOS 475

Satellite information

Favourite Embed

Satellite Type and Status

PAYLOADIN ORBIT

Key statistics

Satellite COSMOS 475 at a glance.

Uptime

19600

Days in orbit

Revolutions

≈ 13.8

Per day

Orbit

LEO

Low Earth Orbit

Inclination

74.0

Latest

Satellite identification and parameters

Extended collection of information and parameters for COSMOS 475.

Object identification

Identified? True

Debris? False

Object name: COSMOS 475

International designator: 1972-009A

Object number (NORAD): 5846

Object ID (CCSDS): 5846

Country: COMMONWEALTH OF INDEPENDENT STATES (CIS)

Current information (Y/N): Y

RCS size: LARGE

Orbital parameters

Period: 104.621 minutes

Inclination: 74.0481 deg

SMA: 7354.844 km

Apoapsis: 992.879 km

Periapsis: 960.538 km

RAAN: 162.8761 deg

Eccentricy: 0.00219857

Argument of periapsis: 124.8597 deg

Mean anomaly: 337.6378 deg

Mean motion: 13.76393452 rev/day

Mean motion (dot): 0.00000053 rev/day2

B* drag term: 0.000077370287 1/REarth

Two-line elements (TLE)

Creation date: Oct. 24, 2025, 2:48 a.m.

Reference frame: TEME

Reference center: EARTH

Epoch: Oct. 23, 2025, 11:47 p.m. UTC

TLE line 0: 0 COSMOS 475

TLE line 1: 1 05846U 72009A 25296.99099253 .00000053 00000-0 77370-4 0 9997

TLE line 2: 2 05846 74.0481 162.8761 0021986 124.8597 337.6378 13.76393452694595

Live tracking on map

Real-time ground track for satellite COSMOS 475.

In-orbit conjunctions

A list of the most updated potential collisions computed for object COSMOS 475.

Target Orbit TCA Probability of collision Miss distance Type
DELTA 1 DEB SSO 2025-10-05 16:55:19 0.0007006466 340.0 (m) DEBRIS
NOAA 16 DEB SSO 2025-07-13 16:36:56 0.0001027127 50.0 (m) DEBRIS
FENGYUN 1C DEB SSO 2025-06-23 01:09:44 0.0002482625 558.0 (m) DEBRIS
COSMOS 1275 DEB LEO 2024-08-08 14:04:04 0.0002002207 69.0 (m) DEBRIS

Associated space launch

The first soviet navigation system called Tsiklon consisted of Zaliv satellites in low earth orbit.

COSMOS 475 was lifted into orbit during the mission ‘Kosmos-3M | Zaliv 10’, on board a Kosmos-3M space rocket.

The launch took place on Feb. 25, 1972, 7:52 a.m. from 132/2.

For more information about the launch, click the button.

Launch to space Kosmos-3M | Zaliv 10
Kosmos-3M | Zaliv 10

Agency: N/A

Status: Launch Successful

Launch date: Feb. 25, 1972, 7:52 a.m. UTC

Rocket: Kosmos-3M

Launch pad: 132/2

Location: Plesetsk Cosmodrome, Russian Federation

...

Latest news about this satellite

There are no fresh news available about this satellite. Check back as we update our databases every day.


Newsletter sign-up

Weekly statistics, charts and insights to help you stay on top of the space industry.